EHI
31 31 30 29 30 34 41 43 39 34 32 30 25 18 10 3 1 2 4 3 1 1 1 1 0 0 2 4 4 2 0 0 0 0 0 0 0 0 0 0 0 0 0
30 29 29 29 29 31 34 35 32 29 27 25 20 15 8 3 2 4 5 2 0 0 0 0 0 0 2 3 4 2 1 0 0 0 0 0 0 0 0 0 0 0 0
28 26 25 26 25 24 24 24 24 26 25 20 14 10 6 3 3 5 4 2 0 0 0 0 0 0 1 2 3 2 1 0 0 0 0 0 0 0 0 0 0 0 0
25 22 21 22 21 19 18 18 22 27 26 19 12 7 4 2 3 4 5 3 0 0 0 0 0 0 1 2 3 2 1 0 0 0 0 0 0 0 0 0 0 0 0
24 21 20 20 19 17 19 23 28 32 28 19 12 6 2 2 2 5 7 5 1 0 0 0 1 1 1 2 3 2 1 0 0 0 0 0 0 0 0 0 0 0 0
22 22 21 21 20 19 24 32 36 37 30 21 14 8 3 3 4 5 7 5 1 1 2 3 3 3 2 3 3 1 0 0 0 0 0 0 0 0 0 0 0 0 0
17 20 23 25 24 24 30 38 41 40 33 23 16 10 5 4 5 4 3 2 1 4 7 8 7 5 3 3 2 1 0 0 0 0 0 0 0 0 0 0 0 0 0
13 17 23 27 27 27 34 42 44 43 37 27 20 13 6 3 3 3 2 2 1 6 13 13 9 6 4 3 2 1 0 0 0 0 0 0 0 0 0 0 0 0 0
13 16 22 27 30 33 38 43 46 46 39 30 23 15 7 3 2 3 3 3 3 8 16 15 10 7 4 3 2 1 0 0 0 0 0 0 0 0 0 0 0 0 0
13 18 23 28 33 38 42 44 47 47 39 29 22 15 11 10 8 7 7 7 9 13 18 16 11 8 5 3 2 1 0 0 0 0 0 0 0 0 0 0 0 0 0
12 17 25 30 32 38 45 48 49 46 38 29 24 21 20 20 17 15 16 20 22 25 26 21 14 9 6 4 3 1 0 0 0 0 0 0 0 0 0 0 0 0 0
14 16 23 30 31 35 45 51 48 43 37 33 32 31 30 28 25 26 31 37 42 41 37 29 19 12 7 6 5 3 2 0 0 0 0 0 0 1 2 1 0 0 0
23 24 30 38 39 39 45 50 45 40 38 38 40 39 36 34 34 38 45 53 57 54 47 38 28 18 11 7 6 6 5 3 2 2 1 1 2 4 5 4 2 1 1
35 40 47 51 49 47 48 49 46 42 42 44 46 45 44 44 46 50 57 62 63 60 55 49 40 28 17 10 9 9 8 7 7 6 5 4 3 5 6 5 4 4 3
39 48 57 59 56 54 52 50 50 49 49 51 52 51 53 55 57 61 64 66 65 62 61 57 48 34 20 10 8 9 9 13 15 14 11 8 4 2 2 2 3 3 3
38 47 57 61 61 59 55 52 52 53 55 56 55 55 58 61 63 63 65 67 67 66 64 59 49 35 18 6 4 6 10 18 24 23 20 13 5 1 0 0 1 1 1
41 48 56 61 61 60 56 52 51 53 56 55 53 53 55 58 59 57 59 61 62 64 64 58 48 37 21 6 1 3 8 16 23 27 26 19 9 4 2 2 1 0 0
40 43 47 51 52 51 50 48 47 48 48 47 47 48 50 52 51 50 51 52 52 54 55 52 46 40 25 8 0 1 3 6 12 17 19 18 13 6 3 3 2 0 0
32 32 34 37 39 39 38 38 38 38 37 37 39 40 41 42 42 42 42 43 43 44 43 40 38 36 25 9 1 0 0 1 2 4 6 9 8 5 2 1 1 0 0
26 26 27 28 30 29 28 27 26 26 25 25 27 28 29 29 30 31 32 32 33 33 32 29 28 27 21 9 1 0 0 0 0 0 0 1 2 1 0 0 0 0 0
20 21 21 21 21 20 19 18 17 16 16 15 15 15 15 15 16 18 19 19 19 20 19 19 20 20 16 9 2 0 0 1 0 0 0 0 0 0 0 0 0 0 0
13 13 12 12 11 10 10 10 10 9 8 7 6 6 5 4 6 7 7 8 8 8 9 11 13 13 11 6 2 0 0 0 0 0 0 0 0 0 0 0 0 0 0
7 6 5 4 4 3 3 3 3 3 3 2 2 1 0 0 1 1 2 3 4 3 4 6 7 8 7 5 1 0 0 0 0 0 0 0 0 0 0 0 0 0 0
3 2 2 2 1 0 0 0 0 0 0 0 0 0 0 0 0 0 1 2 2 2 3 3 3 4 4 3 1 0 0 0 0 0 0 0 0 0 0 0 0 0 0
2 1 1 1 0 0 1 1 1 0 0 0 0 0 0 0 0 0 0 1 1 1 1 1 1 1 1 1 0 0 0 0 0 0 0 0 0 0 0 0 0 0 0
3 2 1 1 0 0 1 1 1 0 0 0 0 0 0 0 0 0 0 0 0 0 0 0 0 0 0 0 0 0 0 0 0 0 0 0 0 0 0 0 0 0 0
Wind_Speed
10 9 9 9 10 9 8 8 9 8 7 5 4 4 4 3 3 4 5 3 3 2 2 2 1 1 3 3 2 2 1 1 1 1 1 2 2 2 1 1 1 1 1
10 10 9 9 10 10 10 9 9 9 8 5 4 4 4 3 3 4 4 4 3 2 2 1 1 3 2 3 2 2 2 1 1 1 2 1 2 1 2 2 1 2 1
12 11 11 11 11 11 11 10 9 9 8 7 5 4 3 2 3 5 4 3 3 2 3 1 2 0 1 3 1 2 2 2 1 1 2 2 2 2 2 1 3 2 1
12 11 11 12 12 11 11 9 10 9 8 8 6 7 5 4 5 4 4 4 3 3 3 2 2 1 2 2 1 3 2 1 2 1 1 1 1 1 1 1 3 3 2
12 12 12 11 11 11 11 10 10 9 9 8 7 6 5 4 4 5 6 5 4 4 4 4 3 1 1 2 3 2 2 2 3 2 1 1 1 2 1 1 1 2 2
12 12 12 11 10 11 11 11 10 10 9 8 8 7 5 4 4 5 6 5 4 4 5 4 3 3 2 2 2 1 0 1 3 3 3 2 1 2 1 1 1 1 1
12 12 13 12 11 12 12 12 12 11 10 9 8 7 6 5 4 4 5 5 4 5 6 6 5 3 3 3 2 2 1 1 0 2 3 3 2 2 2 2 3 2 1
13 13 13 12 12 12 12 12 12 11 11 10 8 7 6 5 4 6 4 5 3 4 7 6 6 5 4 4 4 3 4 2 2 3 1 2 3 2 2 2 2 3 3
14 14 14 13 12 12 11 12 12 11 11 10 8 7 7 6 5 5 5 4 3 4 8 7 6 6 5 4 4 3 3 3 3 3 4 3 3 2 2 2 1 2 3
13 14 14 14 13 12 11 11 12 11 10 10 9 9 8 7 5 5 6 4 4 3 6 7 7 6 6 6 5 4 4 4 4 3 3 3 3 3 2 2 2 2 2
13 12 12 12 13 13 12 11 11 11 10 10 9 8 8 8 7 6 6 5 4 4 5 6 6 7 7 7 6 6 5 6 5 5 5 5 4 3 3 2 3 3 3
11 12 12 12 11 13 13 12 12 12 11 10 9 9 8 8 8 8 7 7 6 6 6 6 7 7 8 7 7 8 7 6 6 6 6 6 5 6 5 4 4 4 4
9 10 11 11 11 11 11 12 12 12 12 11 10 9 9 9 8 8 7 7 7 7 7 8 8 8 7 8 8 8 7 7 7 7 7 7 7 7 5 6 5 4 5
7 8 8 8 8 8 8 9 10 10 10 10 10 9 9 8 8 8 7 7 8 8 8 8 8 8 8 8 8 8 8 8 8 7 7 7 8 8 7 7 7 6 6
7 8 8 6 5 6 6 6 7 7 7 7 7 7 7 7 7 7 7 7 7 9 8 7 7 8 8 9 9 8 10 9 9 8 8 9 10 11 9 9 7 7 7
7 7 7 7 6 5 5 5 5 5 5 6 5 5 4 4 4 4 4 5 5 6 6 7 8 8 9 10 12 9 8 7 8 9 9 10 11 13 15 16 14 11 9
8 8 7 7 6 5 5 4 4 4 4 3 2 2 3 3 2 2 1 2 3 3 3 4 5 6 6 7 8 10 7 7 7 7 7 10 12 11 11 13 17 17 19
10 10 10 10 10 9 8 7 7 7 7 6 6 5 5 4 3 3 3 2 1 1 2 3 4 4 5 5 6 7 7 8 8 8 8 8 9 11 9 9 11 12 13
11 11 11 12 11 11 10 10 10 9 9 9 8 7 6 5 5 4 4 3 2 2 3 3 3 3 3 2 3 4 4 6 8 8 9 10 10 11 12 11 11 11 10
12 12 12 13 12 11 10 12 11 11 10 9 8 7 7 6 6 5 5 4 3 3 3 3 3 3 2 1 2 4 4 5 6 6 8 10 9 9 9 9 10 12 11
13 13 13 12 11 10 11 12 11 10 9 8 8 7 6 5 5 5 4 4 4 4 4 4 3 4 2 2 2 3 2 4 5 6 6 4 5 7 9 9 9 13 12
13 13 11 11 9 9 10 10 9 8 7 7 7 7 6 6 5 4 3 3 3 4 4 4 4 3 2 1 1 1 3 5 6 6 7 7 10 12 12 11 13 16 13
11 11 11 10 9 9 9 9 8 6 6 6 5 4 4 3 3 3 3 3 3 3 4 4 5 5 4 3 5 4 6 7 6 7 11 13 15 15 13 15 17 14 10
10 10 10 10 9 8 7 7 6 5 5 4 3 2 2 2 2 2 3 3 4 4 4 5 5 5 4 5 5 6 6 8 8 8 11 15 16 16 16 15 13 10 10
10 9 8 8 8 7 6 6 5 4 4 3 3 3 3 3 2 2 3 3 1 1 2 3 4 5 5 4 5 6 7 7 8 10 10 10 10 10 9 8 8 8 8
8 8 8 7 7 6 5 5 5 5 5 5 6 6 5 4 4 4 4 3 3 3 4 4 4 3 3 6 8 9 11 13 13 9 10 10 10 10 10 10 9 8 8
Wind_Direction
163 160 162 156 150 147 147 150 147 149 146 145 148 141 149 159 136 130 131 128 107 89 7 75 122 32 72 54 47 32 281 240 13 312 243 188 166 143 124 71 49 88 97
163 165 164 165 161 160 162 162 158 157 157 156 153 152 152 167 139 117 132 143 139 162 145 73 136 78 99 72 44 42 338 317 105 312 294 192 151 234 145 137 136 75 42
170 172 173 171 169 170 173 172 166 163 164 161 159 152 144 151 130 136 157 162 155 126 60 72 57 20 160 111 57 17 353 348 358 49 358 352 47 165 138 146 112 114 43
172 176 179 178 177 176 175 168 167 166 165 166 163 163 172 180 166 164 155 165 169 162 154 135 98 349 62 118 194 96 349 326 312 135 126 110 27 336 125 195 147 165 161
173 178 183 182 179 175 174 168 166 166 166 172 169 177 184 185 166 155 150 169 172 183 174 160 156 198 93 95 66 70 2 343 348 348 6 66 233 258 269 161 163 198 173
170 174 178 176 174 173 171 168 165 167 169 177 175 187 194 190 167 163 159 184 173 187 183 175 174 199 167 138 131 135 190 26 15 351 344 342 334 331 334 335 256 212 166
167 171 173 174 174 174 173 167 168 170 173 180 182 187 198 193 185 187 179 199 186 182 179 181 176 198 174 173 172 189 255 198 41 313 316 339 343 357 354 346 330 339 280
169 172 173 173 175 178 174 166 169 172 176 183 184 186 194 200 201 208 207 204 218 180 164 172 177 195 193 198 181 215 203 189 211 256 291 318 305 335 331 328 337 323 302
168 171 170 173 176 178 173 170 167 172 179 184 182 187 197 213 212 193 210 212 207 177 159 172 181 190 199 211 189 223 231 180 201 231 215 226 270 254 266 283 287 294 308
167 170 173 175 175 176 174 173 169 176 181 185 187 191 199 207 210 215 215 215 203 193 161 175 184 192 193 198 212 226 218 215 219 234 260 244 273 282 255 247 256 257 267
168 167 170 174 175 175 174 175 174 179 185 189 192 199 193 200 204 214 217 214 211 198 187 188 191 196 199 198 202 226 229 212 219 228 229 224 236 266 290 271 247 241 240
161 164 167 170 178 180 178 179 180 184 188 191 191 196 199 199 202 209 211 209 209 206 200 198 202 206 206 203 204 216 230 226 221 225 231 232 231 221 234 256 265 256 245
153 158 163 168 177 179 178 179 184 190 192 190 193 196 202 206 209 211 207 206 206 209 209 203 206 211 214 208 208 213 224 231 231 227 227 228 233 235 230 230 241 250 254
138 145 146 154 159 161 164 170 179 188 193 190 192 197 203 207 210 211 211 210 208 209 213 211 211 211 216 218 215 215 220 226 233 234 233 232 229 231 231 237 235 240 251
131 130 131 135 143 147 153 160 166 172 177 178 187 196 204 206 210 211 213 213 213 217 214 216 217 218 219 222 218 219 223 222 228 233 235 238 238 236 235 240 237 233 235
106 111 118 132 141 144 149 150 154 162 161 165 172 175 179 186 205 215 216 216 218 223 218 217 221 224 231 230 221 219 232 230 230 235 236 241 241 240 237 239 242 243 244
83 80 85 86 93 104 109 113 119 121 117 116 115 128 147 156 182 208 200 225 229 230 239 237 235 237 242 245 230 224 233 244 247 247 245 251 253 245 238 235 235 240 243
83 77 77 76 73 74 75 75 75 72 72 69 66 55 55 58 50 50 52 30 349 281 263 262 261 262 265 258 242 236 240 254 257 258 257 257 259 262 260 256 247 238 238
82 77 76 76 71 70 73 74 68 66 64 58 52 47 43 47 52 40 26 23 4 331 303 286 281 275 282 275 248 235 255 260 263 264 265 263 262 261 261 262 263 260 253
83 81 78 76 72 68 71 74 69 63 58 55 55 54 48 42 45 40 26 11 350 333 320 315 308 297 281 276 249 227 260 275 281 279 273 268 272 282 281 271 269 266 264
90 85 81 75 71 69 72 74 69 66 61 58 54 47 42 42 47 37 19 359 344 326 305 300 299 294 274 234 217 212 254 289 297 297 298 299 332 322 310 297 279 273 277
96 92 87 81 74 71 72 73 66 61 60 56 51 45 34 27 32 18 0 340 324 313 307 304 305 308 327 32 60 205 266 303 310 303 301 307 319 314 304 291 274 272 274
99 97 95 89 78 71 72 73 66 57 52 51 44 36 26 15 7 348 334 319 317 327 339 345 344 343 353 19 20 2 330 315 301 296 303 311 306 302 294 278 272 270 267
104 98 92 89 82 74 72 74 68 57 46 38 25 0 343 350 357 335 333 343 355 358 358 348 339 336 337 9 10 355 336 324 312 313 314 309 293 282 273 274 273 262 255
97 94 93 91 86 80 71 64 56 40 25 9 351 338 345 1 340 323 322 327 342 339 300 318 321 325 329 353 342 332 324 320 313 313 301 292 289 286 283 279 276 273 270
100 97 93 89 85 79 72 60 45 29 9 359 354 343 343 352 341 333 329 306 286 247 237 247 274 317 333 323 321 313 302 295 296 300 293 293 292 292 295 296 294 289 284